Temperature
19 19 19 18 18 18 18 18 19 19 19 19 19 19 19 18 18 17 17 17 17 18 17 17 18 18 18 19 18 18 18 18 17 18 18 18 18 18 18 18 18 17 17
19 19 19 19 19 19 18 19 19 19 19 19 19 19 18 18 17 17 17 17 17 17 17 17 17 17 18 18 18 18 18 18 17 17 17 17 17 18 17 17 17 17 17
19 19 19 19 19 19 19 19 19 19 18 18 18 18 18 18 17 17 17 17 17 17 17 17 17 17 17 17 17 17 17 17 17 17 17 17 17 17 17 17 17 17 17
19 19 19 19 19 19 19 19 19 18 18 18 18 18 18 18 18 17 17 17 17 17 17 17 17 17 17 17 17 17 17 17 17 17 17 17 17 17 17 17 16 16 16
19 19 19 19 19 19 19 18 18 18 18 18 18 18 18 18 18 18 18 18 18 17 17 17 17 17 17 17 17 17 17 17 17 17 17 17 17 17 17 17 16 16 16
19 19 19 19 19 18 18 18 18 18 18 18 18 18 18 18 18 18 18 18 18 17 17 17 17 17 17 17 17 17 17 17 17 17 17 17 17 17 17 17 16 16 16
19 19 18 18 18 18 18 18 18 17 17 17 17 18 18 18 18 18 18 18 18 18 17 17 17 17 17 17 17 17 17 17 16 16 16 16 16 16 17 16 16 16 16
18 18 18 18 18 18 17 17 17 17 17 17 17 17 17 17 18 18 18 18 18 18 18 17 17 17 17 17 17 17 17 16 16 16 16 16 16 16 16 16 16 16 15
18 18 18 18 17 17 17 17 17 17 17 17 17 17 17 17 17 17 17 17 17 17 17 17 17 17 17 17 17 17 17 16 16 16 16 16 16 16 16 16 15 15 15
18 18 17 17 17 17 17 17 17 17 17 17 17 17 17 17 17 17 17 17 17 17 17 17 17 17 17 16 17 17 17 17 17 17 17 16 16 16 16 16 15 15 15
17 17 17 17 17 17 17 17 17 17 16 17 17 17 17 16 16 16 16 17 17 17 17 17 17 17 17 16 16 16 17 17 17 17 17 17 16 16 16 16 16 16 16
16 17 17 17 17 17 17 16 16 16 16 16 16 16 16 16 16 16 16 16 16 16 16 16 17 17 17 16 16 16 16 16 16 17 17 16 16 16 16 16 16 16 16
16 16 16 16 16 16 16 16 16 16 16 16 16 16 16 16 16 16 16 16 16 16 16 16 16 16 16 16 16 16 16 16 16 16 16 16 16 16 16 16 16 16 16
15 15 15 15 16 16 16 16 16 16 16 16 16 16 16 15 15 15 15 15 15 16 16 16 16 16 16 16 16 16 16 16 16 16 16 16 16 16 16 16 16 16 16
14 14 14 15 15 15 15 15 16 16 16 15 15 15 15 15 15 15 15 15 15 15 15 16 16 16 16 15 15 15 16 16 16 16 16 16 16 16 16 16 16 16 16
13 14 14 14 15 15 15 15 15 15 15 15 15 15 15 15 15 15 15 14 14 14 15 16 16 16 15 15 15 15 15 15 16 16 16 16 16 16 16 16 16 16 16
14 14 14 15 15 15 15 15 15 15 15 15 15 15 15 15 15 14 14 14 14 14 14 15 15 15 15 15 15 15 15 15 16 15 15 15 16 16 16 16 16 16 16
14 14 15 15 15 15 15 15 15 15 15 15 15 15 15 15 14 14 14 14 14 14 14 15 15 15 15 15 15 15 15 15 15 15 16 16 16 16 16 16 16 16 15
15 15 15 15 15 15 15 15 15 15 15 15 15 15 15 15 15 14 14 14 14 14 14 14 14 15 15 15 14 14 15 15 15 15 15 16 16 16 15 15 15 15 15
14 15 15 15 15 15 15 15 15 15 15 15 15 15 15 15 15 14 14 14 14 14 14 14 14 14 14 14 14 14 14 14 15 15 15 15 16 15 15 15 15 15 15
14 14 14 14 14 14 14 15 15 14 15 15 15 15 15 15 15 15 15 14 14 14 14 14 14 14 14 14 14 14 14 14 14 14 14 15 15 15 15 15 15 15 15
13 14 14 14 14 14 14 14 14 14 14 15 15 15 15 15 15 15 15 14 14 14 14 14 14 14 14 14 14 14 13 13 13 14 14 14 14 14 14 14 14 14 14
12 13 13 13 13 13 13 14 14 14 14 14 14 14 14 14 14 14 14 14 14 14 14 14 14 14 14 14 13 13 13 13 13 13 13 13 13 13 13 13 13 13 13
11 12 12 11 11 12 12 13 13 14 14 14 14 14 14 14 14 14 14 14 14 14 14 14 14 14 14 13 13 13 13 13 13 13 13 13 13 13 13 13 13 13 13
11 11 11 11 11 12 12 12 13 13 13 13 13 13 14 14 14 14 14 14 14 14 14 14 14 14 14 13 13 13 13 13 13 13 12 12 12 12 12 12 12 12 12
11 11 11 11 11 11 11 12 12 12 12 12 12 12 13 13 13 14 13 13 14 14 13 13 14 14 14 13 13 13 12 12 12 12 12 12 12 12 12 12 12 12 12
Wind_Speed
5 3 5 9 10 11 7 4 5 3 2 3 2 5 5 8 8 9 9 5 3 1 0 1 3 4 4 4 4 4 5 5 4 6 8 8 8 7 5 5 4 4 3
4 4 4 4 5 7 8 6 3 3 2 3 4 4 3 6 6 7 11 8 5 4 3 2 1 3 4 5 4 4 6 6 6 6 7 8 7 7 6 5 4 3 3
7 4 5 6 4 6 7 4 2 4 4 3 1 2 3 4 2 4 8 10 9 7 6 5 3 2 2 3 3 4 5 6 6 7 7 6 6 6 6 5 4 3 3
9 5 3 5 4 5 3 3 3 2 3 2 3 1 2 3 2 1 3 9 10 9 8 7 6 5 4 4 4 4 5 6 6 6 5 4 3 3 3 4 3 4 4
9 4 3 3 4 3 2 3 2 1 2 2 2 2 1 3 2 3 5 6 10 11 11 9 9 7 6 6 6 6 6 6 6 6 6 5 3 2 2 3 3 3 3
6 5 4 3 3 3 2 1 3 1 2 0 2 2 2 2 2 3 2 2 4 10 11 11 10 8 8 8 7 6 6 6 6 6 6 5 3 2 3 3 3 3 3
5 5 4 3 1 3 4 2 2 2 1 2 2 3 3 2 4 4 3 3 2 6 8 10 11 11 9 9 8 7 6 6 6 5 5 4 3 3 3 3 3 3 2
5 5 6 4 2 2 2 2 3 2 2 2 2 1 2 4 4 3 3 3 4 3 4 9 12 13 12 12 11 10 8 7 6 5 5 4 3 3 3 3 2 2 3
6 4 4 5 4 4 3 4 4 6 5 5 4 3 3 4 2 3 3 4 5 3 3 2 5 12 14 15 14 12 11 9 7 6 5 4 4 4 4 4 4 5 5
4 5 3 3 4 4 5 6 7 6 7 6 4 3 4 4 3 2 3 3 5 4 2 2 2 3 11 15 16 16 13 10 8 6 5 5 5 6 6 7 6 6 6
3 4 3 2 1 1 4 7 6 6 5 5 4 3 3 2 3 3 3 3 3 1 3 2 2 3 6 14 16 17 16 12 9 7 6 6 7 8 8 8 7 5 4
3 4 4 2 1 2 3 4 3 4 4 5 4 4 3 2 3 2 3 4 4 4 4 4 3 3 5 10 15 20 18 14 10 8 7 7 8 9 9 8 6 5 4
3 3 4 2 0 2 4 3 2 4 5 5 5 3 3 3 2 2 3 3 4 4 3 3 5 4 5 8 13 21 18 16 13 10 9 8 8 8 8 8 7 6 4
3 3 3 2 1 2 5 3 1 3 4 5 6 5 3 3 2 2 3 3 2 3 3 4 4 4 8 11 16 20 17 17 15 13 12 10 9 8 8 8 7 6 6
3 3 2 0 1 3 6 4 2 4 3 1 1 1 2 2 2 2 3 4 4 3 4 5 4 4 6 10 16 18 15 18 18 17 15 14 12 11 10 9 9 8 7
3 2 1 2 4 5 6 4 3 2 1 0 2 0 2 2 3 3 3 3 4 5 4 4 5 3 3 5 13 16 16 20 22 21 19 17 15 14 13 12 11 10 9
2 3 4 5 6 7 7 5 4 3 2 3 4 6 6 5 3 4 4 4 4 5 6 5 3 3 3 3 5 9 11 13 18 22 22 20 19 17 15 14 14 13 12
4 5 6 7 6 6 5 6 6 3 3 4 5 4 5 5 6 4 4 4 4 5 5 6 4 3 4 3 4 5 5 9 13 21 24 22 20 19 18 17 16 15 15
5 5 5 6 4 1 1 3 5 4 5 5 5 4 4 2 3 2 2 3 3 4 4 4 5 4 4 3 3 3 4 3 6 11 21 22 21 21 21 20 20 19 18
5 4 3 3 2 1 3 2 1 3 5 5 5 4 4 1 2 2 1 1 1 2 3 3 4 3 4 3 2 3 4 3 3 3 9 15 19 21 22 22 22 22 21
8 8 9 9 9 8 9 9 7 4 3 4 3 2 2 6 6 4 2 2 3 2 1 2 2 2 2 2 3 3 4 3 3 2 2 5 7 9 14 20 23 23 23
9 10 10 10 11 10 13 13 9 7 6 4 4 2 4 5 6 5 3 2 1 2 2 1 0 1 2 3 2 2 2 1 2 1 0 2 2 4 5 9 15 22 24
8 8 8 8 8 11 15 15 12 7 6 6 4 3 2 4 6 5 7 7 5 4 2 1 1 0 0 2 3 3 2 1 1 1 2 2 2 3 3 4 7 7 15
6 7 7 7 6 11 16 16 16 6 5 5 5 4 1 1 1 2 0 3 3 5 5 2 3 3 3 3 3 3 2 1 1 1 1 1 2 2 3 5 7 6 2
6 6 6 7 7 9 16 18 17 6 5 6 5 4 6 6 7 7 4 3 3 3 3 5 6 6 6 6 4 3 2 1 1 1 1 0 2 2 2 2 5 7 5
5 5 6 6 7 7 12 17 17 7 8 7 6 5 9 8 7 7 5 4 4 3 2 2 2 2 2 2 2 1 1 1 0 1 1 1 1 2 3 2 2 4 4
Wind_Direction
201 185 178 169 184 191 180 235 241 194 71 77 54 47 83 91 87 99 117 113 105 88 102 220 207 198 201 207 213 206 194 187 190 183 177 172 165 159 158 152 143 132 116
187 172 196 157 195 175 169 216 226 104 81 64 35 30 42 96 110 133 139 139 125 103 91 87 144 193 203 208 213 207 190 185 186 183 181 184 180 177 180 178 173 162 151
188 179 204 158 193 177 184 213 119 107 111 112 150 325 71 49 41 121 146 155 144 120 105 97 103 122 155 173 186 180 176 178 179 183 187 193 199 200 200 196 192 187 188
190 188 182 148 169 165 164 114 66 100 133 167 184 187 136 114 264 17 226 168 153 139 125 116 114 115 120 124 127 136 151 160 164 166 168 171 180 191 199 210 218 221 222
192 165 133 119 149 127 134 140 145 158 148 167 161 156 240 175 175 227 254 161 149 153 143 134 124 121 124 126 127 127 132 139 139 135 132 131 139 159 198 223 236 236 222
171 126 115 125 131 131 128 115 133 107 53 59 279 214 202 184 225 236 310 340 196 159 151 153 145 135 133 134 135 135 135 138 138 135 133 135 148 177 211 226 227 223 218
156 126 128 146 121 141 157 172 115 95 28 333 316 328 320 254 244 205 195 256 266 146 152 170 168 156 148 138 136 140 143 144 146 144 140 138 148 175 199 216 218 224 225
168 154 152 158 154 122 122 142 123 141 214 247 225 215 314 319 290 263 196 182 274 187 207 201 173 162 166 152 145 138 135 136 137 137 133 136 147 167 180 193 195 151 115
167 159 162 169 173 171 183 199 187 183 205 232 234 180 181 229 276 299 250 206 224 239 232 257 191 171 159 153 150 143 140 140 141 139 134 138 150 159 166 171 147 120 106
149 147 141 152 175 179 199 215 213 203 202 219 240 231 214 201 178 277 310 272 230 208 212 277 280 182 161 150 155 155 152 151 153 154 148 143 145 148 144 132 125 119 113
106 109 108 99 125 194 222 234 227 203 196 208 219 221 245 272 236 197 253 293 301 225 197 248 259 255 167 151 154 162 164 165 167 173 171 162 156 147 140 136 138 141 143
83 89 95 92 31 308 269 251 203 188 189 207 215 211 203 218 237 207 221 248 264 270 228 212 230 240 191 163 167 168 169 173 178 183 186 182 173 165 161 160 165 175 194
79 73 95 114 119 302 291 277 204 199 202 206 210 217 218 223 225 203 208 243 253 266 256 205 208 220 204 155 158 167 173 177 183 189 192 191 187 184 183 186 194 205 216
74 53 72 99 135 276 275 266 267 234 224 203 202 204 196 223 215 210 205 210 248 260 254 242 211 205 205 178 173 175 180 184 189 195 199 203 202 200 202 207 213 216 220
50 36 31 325 227 251 262 247 207 254 248 266 179 170 184 197 211 225 221 200 196 228 244 241 232 212 197 188 180 185 184 192 197 201 204 207 209 212 214 217 218 217 219
20 4 320 262 236 234 238 238 223 257 291 256 107 324 269 233 222 223 237 227 208 207 238 242 227 217 189 182 178 188 196 199 203 205 206 208 211 216 220 223 224 223 224
303 282 270 257 240 230 223 203 210 214 235 258 216 212 220 217 213 215 226 231 230 214 229 252 232 213 188 181 170 211 214 197 203 208 209 210 212 215 221 226 229 230 230
268 271 268 268 258 225 212 183 189 205 226 261 269 253 222 202 206 218 219 230 235 227 219 240 239 218 213 206 183 212 221 206 200 210 211 213 214 217 221 227 231 233 234
268 262 255 257 268 264 149 152 178 202 227 239 249 265 275 231 198 211 223 237 241 247 227 226 239 226 225 226 218 233 246 246 233 215 208 214 218 220 223 227 231 234 235
290 305 322 306 310 26 20 350 285 223 235 243 239 232 232 196 94 61 30 3 295 262 246 231 238 232 223 217 193 217 245 247 247 219 200 211 219 225 228 230 233 236 237
20 19 17 18 25 39 26 14 354 327 283 269 262 259 123 104 103 93 64 19 358 320 272 237 238 231 209 182 203 205 219 248 260 236 209 210 207 218 228 236 238 239 238
35 33 32 41 46 35 18 15 1 333 318 300 280 255 145 153 150 159 177 208 264 330 351 350 165 217 240 208 188 173 192 196 254 320 305 275 221 228 230 229 240 238 236
50 43 37 45 55 31 17 9 357 321 301 299 291 277 225 147 165 194 202 215 223 221 234 349 15 140 222 186 159 162 187 190 206 7 39 311 326 311 318 345 337 266 238
54 56 37 31 50 36 18 8 355 321 297 304 306 306 307 161 135 41 124 223 208 185 204 216 57 66 71 80 112 143 150 126 37 63 103 295 338 343 359 18 38 43 8
37 56 43 32 35 33 20 14 6 345 353 344 335 12 31 60 56 40 12 1 51 94 113 92 93 93 85 75 70 74 81 86 307 260 115 359 344 340 349 4 20 30 25
21 60 60 45 38 34 25 21 15 10 6 355 349 45 67 69 59 34 14 24 54 43 67 134 135 142 148 141 115 77 108 117 314 318 114 115 358 1 346 331 332 350 357
Height
1548 1550 1550 1550 1551 1552 1553 1555 1556 1558 1559 1560 1561 1562 1562 1561 1561 1561 1560 1559 1558 1558 1558 1558 1559 1559 1560 1561 1562 1563 1565 1566 1568 1568 1569 1570 1571 1572 1573 1574 1574 1575 1575
1546 1548 1550 1551 1552 1553 1554 1555 1556 1557 1559 1559 1560 1561 1562 1561 1561 1560 1560 1559 1559 1558 1558 1558 1558 1559 1559 1560 1561 1562 1563 1565 1566 1568 1569 1570 1571 1572 1572 1573 1574 1574 1574
1544 1546 1548 1549 1551 1553 1554 1555 1556 1557 1558 1559 1560 1561 1561 1561 1561 1561 1560 1559 1559 1558 1558 1557 1558 1558 1558 1559 1560 1561 1562 1563 1565 1566 1568 1569 1570 1571 1571 1572 1572 1573 1573
1542 1544 1546 1547 1549 1551 1553 1554 1555 1556 1557 1558 1559 1560 1561 1561 1561 1561 1560 1559 1558 1558 1558 1557 1557 1558 1558 1559 1559 1560 1561 1562 1563 1565 1566 1567 1568 1569 1570 1570 1571 1571 1571
1540 1542 1543 1545 1547 1549 1551 1553 1554 1556 1557 1558 1559 1559 1560 1560 1560 1560 1560 1560 1559 1558 1558 1558 1558 1558 1558 1558 1559 1559 1560 1561 1562 1563 1564 1565 1566 1567 1568 1568 1569 1569 1569
1536 1538 1540 1543 1545 1547 1549 1551 1553 1554 1555 1556 1558 1558 1559 1559 1559 1559 1559 1560 1560 1559 1558 1558 1558 1558 1558 1558 1558 1559 1559 1560 1561 1562 1563 1563 1564 1565 1565 1566 1566 1567 1567
1532 1534 1536 1539 1542 1544 1546 1549 1550 1552 1553 1555 1556 1557 1557 1558 1558 1558 1558 1558 1559 1559 1558 1558 1557 1558 1558 1558 1558 1558 1559 1559 1560 1561 1561 1562 1563 1563 1564 1564 1565 1565 1566
1528 1531 1533 1536 1539 1541 1543 1546 1547 1548 1550 1552 1553 1554 1555 1556 1556 1556 1556 1557 1557 1558 1557 1558 1557 1556 1557 1557 1557 1558 1558 1558 1559 1560 1560 1561 1561 1562 1562 1563 1563 1564 1564
1523 1527 1530 1532 1535 1537 1539 1542 1543 1545 1546 1549 1550 1552 1552 1552 1553 1554 1554 1555 1555 1556 1556 1557 1557 1556 1555 1555 1556 1556 1557 1558 1558 1559 1559 1559 1560 1561 1561 1562 1562 1562 1563
1519 1522 1526 1529 1531 1533 1535 1537 1539 1540 1542 1544 1546 1548 1549 1550 1551 1551 1552 1553 1553 1553 1554 1555 1556 1556 1554 1553 1554 1555 1556 1556 1557 1558 1558 1558 1559 1560 1560 1561 1561 1561 1561
1515 1518 1521 1524 1527 1529 1531 1533 1534 1536 1538 1540 1542 1544 1545 1546 1547 1549 1549 1550 1551 1551 1551 1552 1553 1553 1553 1552 1552 1553 1554 1554 1555 1556 1557 1557 1558 1558 1559 1559 1560 1560 1559
1511 1513 1515 1519 1523 1526 1528 1529 1531 1533 1535 1537 1538 1540 1541 1542 1544 1545 1546 1546 1547 1548 1548 1548 1549 1550 1551 1550 1549 1550 1551 1552 1553 1554 1555 1556 1556 1557 1557 1558 1558 1558 1557
1507 1509 1511 1515 1519 1522 1525 1527 1528 1530 1532 1533 1535 1536 1537 1538 1540 1542 1542 1543 1544 1544 1544 1544 1545 1546 1547 1547 1547 1548 1548 1549 1550 1551 1553 1554 1554 1555 1555 1556 1556 1556 1555
1504 1507 1509 1512 1515 1519 1522 1524 1526 1528 1529 1530 1531 1532 1533 1534 1536 1537 1538 1539 1539 1540 1540 1541 1541 1542 1543 1544 1544 1545 1546 1547 1548 1549 1550 1551 1552 1552 1553 1553 1553 1554 1553
1503 1505 1507 1511 1513 1516 1519 1522 1524 1526 1527 1528 1529 1529 1530 1530 1531 1532 1533 1534 1536 1535 1536 1537 1538 1538 1539 1540 1541 1541 1542 1544 1545 1546 1547 1548 1549 1549 1550 1551 1551 1551 1551
1503 1505 1507 1509 1512 1515 1518 1520 1522 1523 1524 1525 1526 1526 1527 1527 1528 1528 1529 1530 1531 1532 1532 1532 1534 1535 1535 1536 1537 1539 1539 1540 1542 1543 1544 1545 1546 1546 1547 1548 1548 1548 1548
1504 1506 1508 1510 1511 1513 1516 1517 1519 1521 1522 1523 1523 1523 1524 1524 1525 1525 1525 1525 1526 1527 1527 1528 1530 1531 1532 1533 1534 1535 1536 1537 1538 1539 1540 1541 1542 1543 1544 1544 1545 1545 1545
1506 1507 1508 1509 1511 1512 1513 1515 1517 1519 1519 1520 1521 1522 1522 1522 1522 1522 1522 1522 1522 1523 1524 1524 1525 1526 1528 1529 1530 1531 1532 1533 1534 1536 1537 1538 1539 1540 1540 1541 1541 1542 1542
1508 1509 1509 1509 1511 1512 1513 1514 1515 1516 1517 1518 1519 1520 1520 1520 1520 1520 1520 1519 1519 1519 1519 1520 1521 1522 1523 1525 1526 1527 1529 1530 1531 1532 1533 1534 1535 1536 1536 1537 1538 1538 1539
1509 1509 1509 1510 1510 1511 1511 1512 1513 1514 1515 1516 1516 1517 1518 1518 1518 1518 1517 1516 1516 1516 1516 1516 1517 1518 1519 1520 1522 1523 1524 1526 1527 1528 1528 1529 1531 1531 1532 1532 1533 1533 1534
1509 1509 1509 1509 1509 1509 1509 1510 1511 1512 1513 1513 1514 1515 1515 1516 1516 1516 1516 1515 1514 1513 1513 1513 1514 1515 1515 1516 1517 1519 1520 1522 1523 1524 1525 1525 1525 1526 1526 1527 1527 1528 1529
1509 1508 1508 1508 1508 1508 1508 1508 1509 1509 1510 1511 1511 1512 1513 1513 1514 1515 1514 1514 1514 1513 1512 1512 1512 1512 1513 1513 1514 1515 1517 1518 1519 1520 1521 1521 1521 1521 1521 1522 1522 1522 1523
1509 1508 1508 1507 1507 1506 1506 1506 1506 1507 1507 1508 1509 1510 1510 1511 1512 1513 1513 1514 1514 1513 1513 1513 1512 1511 1511 1511 1511 1512 1514 1515 1516 1517 1517 1517 1517 1517 1517 1517 1517 1517 1518
1511 1509 1508 1508 1507 1506 1505 1504 1504 1504 1505 1506 1506 1507 1508 1509 1510 1511 1512 1513 1513 1513 1513 1513 1512 1511 1511 1511 1511 1512 1513 1514 1514 1515 1515 1515 1514 1514 1513 1513 1513 1513 1513
1512 1511 1510 1509 1508 1506 1505 1504 1503 1503 1503 1503 1504 1504 1505 1505 1507 1509 1510 1511 1512 1512 1513 1513 1512 1512 1511 1511 1511 1511 1512 1513 1514 1514 1514 1513 1513 1512 1511 1510 1510 1510 1510
1514 1513 1512 1510 1509 1508 1506 1505 1503 1502 1502 1501 1502 1502 1502 1503 1504 1506 1508 1509 1510 1511 1512 1512 1512 1512 1511 1511 1511 1511 1512 1512 1513 1513 1513 1513 1512 1511 1511 1510 1510 1509 1509